Tracking 19242 objects as of 20-Sep-2018
HD Live streaming from Space Station
objects crossing your sky now

FENGYUN 1C DEB

Track FENGYUN 1C DEB now!
10-day predictions


NORAD ID: 30985
Int'l Code: 1999-025BCB
Perigee: 820.7 km
Apogee: 901.4 km
Inclination: 99.2 °
Period: 102.0 minutes
Semi major axis: 7232 km
RCS: 0.0134 m2 (small)
Launch date: May 10, 1999
Source: People's Republic of China (PRC)
Launch site: Taiyaun Space Center, China (TSC)

Note: This is SATELLITE DEBRIS
aabbcc
Your satellite tracking list
Your tracking list is empty




NASA's NSSDC Master Catalog

Two Line Element Set (TLE):
1 30985U 99025BCB 18261.59475875  .00001027  00000-0  58293-3 0  9998
2 30985  99.2362  32.2854 0055747 258.6937 162.2260 14.11594086591687
Source of the keplerian elements: AFSPC